Starlink 30612

operational
NORAD ID: 58106 Int'l Des: 2023-161 Owner: SPXS Country: US Constellation: starlink
LEOCIRCULAR

关于 Starlink 30612

正在加载描述...

实时位置

正在加载3D地球...

即将过境

高度历史

Altitude vs Time

uPlot chart will show altitude changes over time

两行轨道根数

1 58106U 23161K 25302.54406076 .00030867 00000-0 10473-2 0 9998
2 58106 53.1605 41.6818 0001527 71.5678 288.5488 15.30282372114528
Epoch: Oct 29, 2025 • Age: 14 hours

当前状态

高度 474.6 km
速度 7.63 km/s
星下点 19.28°N, 33.71°W
发射日期 Oct 21, 2023
运行时间 2 years
类型 internet

技术详情

分类 Payload
质量 730.00 kg
干质量 700.00 kg
总质量 730.00 kg
长度 0.30 m
直径 4.10 m
跨度 29.00 m
形状 Box + pan
制造商 SPXS
平台类型 Starlink V2M
阶段状态 In Orbit
所有者/国家 SPXS/US

大型星座

Loading constellations...